Location: Brienzwiler
(46.7508°N, 8.1014°E)
Time: 01:40:25
(UTC+00:00)

Cosmos 2237 Rocket - Pass Details

Date: 05 July 2020
Orbit: 835 x 850 km, 71.0° (Epoch: 11 August)

Event Time Altitude Azimuth Distance (km) Brightness Sun altitude
Exits shadow 20:32:47 11° 120° (ESE) 2,432 4.0 -9.6°
Maximum altitude 20:35:03 13° 96° (E) 2,255 4.0 -9.9°
Drops below altitude 10° 20:37:35 10° 69° (ENE) 2,481 4.4 -10.2°
Sets 20:41:25 0° 44° (NE) 3,424 5.5 -10.6°
